Location: Recife
(8.0585°S, 34.8848°W)
Time: 06:51:53
(UTC-03:00)

Vanguard 1 Rocket - Pass Details

Date: 20 April 2026
Orbit: 655 x 4212 km, 34.3° (Epoch: 13 May)

Event Time Altitude Azimuth Distance (km) Brightness Sun altitude
Rises 12:53:06 0° 210° (SSW) 3,708 10.5 59.3°
Reaches altitude 10° 12:56:12 10° 191° (S) 3,117 10.1 58.7°
Maximum altitude 13:01:49 20° 145° (SE) 3,096 10.0 57.6°
Drops below altitude 10° 13:10:10 10° 103° (ESE) 4,871 10.9 55.9°
Sets 13:16:56 0° 89° (E) 6,647 11.5 54.5°
